Flag for Canada Weather past 2 weeks in Kuujjuaq, Quebec, Canada

Now
37 °F

Sprinkles. Overcast.


Feels Like: 30 °F
Forecast: N/A
Wind: 10 mph from West

Location: Kuujjuaq

Current Time: Sep 18, 2014 at 6:25:16 PM

Latest Report: Sep 18, 2014 at 5:50 PM


Visibility: 15 mi

Pressure: 29.78 "Hg

Humidity: 87%

Dew point: 34 °F

Location of KuujjuaqLocation

Historic Weather in Kuujjuaq — Graph

°F

Kuujjuaq temperature yesterday

Maximum temperature yesterday: 45 °F (at 12:00 AM)
Minimum temperature yesterday: 34 °F (at 9:00 PM)
Average temperature yesterday: 39 °F

Past Weeks' High & Low Weather Summary

 TemperatureHumidityPressure
High59 °F (Sep 9, 10:00 AM)100% (Sep 3, 11:00 PM)30.11 "Hg (Sep 3, 11:00 PM)
Low32 °F (Sep 7, 10:00 PM)31% (Sep 8, 2:00 PM)29.29 "Hg (Sep 4, 2:00 AM)
Average43 °F77%29.74 "Hg
* Reported Sep 3 5:00 PM — Sep 18 5:00 PM, Kuujjuaq, Weather by CustomWeather, © 2014

Note: Actual official high and low records may vary slightly from our data, if they occured in-between our weather recording intervals... More about our weather records

Advertising

Kuujjuaq weather history for previous 24 hours

 ConditionsComfort  
Time TempWeatherWind HumidityBarometerVisibility
5:00 PM
Sep 18
37 °FMore clouds than sun.12 mph93%29.76 "Hg15 mi
4:00 PM37 °FMostly cloudy.10 mph93%29.75 "Hg15 mi
3:00 PM37 °FScattered showers. Mostly cloudy.8 mph87%29.73 "Hg15 mi
2:00 PM34 °FLight snow. Mostly cloudy.10 mph100%29.72 "Hg8 mi
1:00 PM34 °FLight rain. Mostly cloudy.10 mph93%29.70 "Hg10 mi
12:00 PM34 °FLight snow. More clouds than sun.13 mph93%29.67 "Hg2 mi
11:00 AM34 °FLight snow. Mostly cloudy.13 mph93%29.66 "Hg1 mi
10:00 AM32 °FLight snow. Mostly cloudy.15 mph100%29.65 "Hg1 mi
9:00 AM32 °FLight snow. Mostly cloudy.14 mph93%29.64 "Hg15 mi
8:00 AM32 °FLight snow. Mostly cloudy.13 mph93%29.64 "Hg1 mi
7:00 AM32 °FLight snow. Mostly cloudy.15 mph87%29.64 "Hg3 mi
6:00 AM34 °FLight snow. Mostly cloudy.18 mph75%29.62 "Hg12 mi
5:00 AM34 °FLight snow. Overcast.16 mph70%29.62 "Hg15 mi
4:00 AM34 °FPartly cloudy.13 mph75%29.61 "Hg15 mi
3:00 AM34 °FPartly cloudy.16 mph70%29.61 "Hg15 mi
2:00 AM34 °FPassing clouds.15 mph65%29.60 "Hg15 mi
1:00 AM34 °FPassing clouds.14 mph65%29.59 "Hg15 mi
12:00 AM34 °FPartly cloudy.14 mph65%29.59 "Hg15 mi
11:00 PM
Sep 17
34 °FPartly cloudy.15 mph65%29.59 "Hg15 mi
10:00 PM34 °FPartly cloudy.17 mph65%29.58 "Hg15 mi
9:00 PM34 °FMostly cloudy.16 mph70%29.58 "Hg15 mi
8:00 PM36 °FMostly cloudy.12 mph65%29.58 "Hg15 mi
7:00 PM36 °FMostly cloudy.21 mph70%29.57 "Hg15 mi
6:00 PM36 °FCloudy.21 mph81%29.54 "Hg15 mi
Weather by CustomWeather, © 2014

See weather overviewHow to use our weather pages